Hourly Weather Otochka

Today, 1 August, Sunday

Time Temperature Precipitation Wind Pressure Humidity
00:00 +19°C° 0.1 mm 4 mps 743 mmHg 90%
01:00 +19°C° 0.1 mm 3 mps 743 mmHg 92%
02:00 +19°C° 0.1 mm 3 mps 743 mmHg 93%
03:00 +18°C° 0 mm 3 mps 743 mmHg 94%
04:00 +18°C° 0 mm 2 mps 743 mmHg 95%
05:00 +17°C° 0 mm 2 mps 743 mmHg 96%
06:00 +19°C° 0 mm 2 mps 743 mmHg 91%
07:00 +20°C° 0 mm 3 mps 744 mmHg 85%
08:00 +21°C° 0 mm 3 mps 744 mmHg 80%
09:00 +24°C° 0 mm 3 mps 744 mmHg 72%
10:00 +25°C° 0 mm 2 mps 744 mmHg 64%
11:00 +27°C° 0 mm 2 mps 744 mmHg 56%
12:00 +28°C° 0 mm 2 mps 744 mmHg 52%
13:00 +28°C° 0 mm 2 mps 744 mmHg 47%
14:00 +29°C° 0 mm 2 mps 744 mmHg 43%
15:00 +29°C° 0 mm 2 mps 744 mmHg 44%
16:00 +29°C° 0 mm 1 mps 744 mmHg 45%
17:00 +29°C° 0 mm 1 mps 743 mmHg 47%
18:00 +27°C° 0 mm 2 mps 743 mmHg 53%
19:00 +25°C° 0 mm 2 mps 743 mmHg 59%
20:00 +24°C° 0 mm 2 mps 742 mmHg 65%
21:00 +23°C° 0 mm 2 mps 742 mmHg 68%
22:00 +21°C° 0 mm 2 mps 742 mmHg 71%
23:00 +21°C° 0 mm 2 mps 742 mmHg 75%

Tomorrow, 2 August, Monday

Time Temperature Precipitation Wind Pressure Humidity
00:00 +20°C° 0.7 mm 2 mps 742 mmHg 81%
01:00 +19°C° 0.7 mm 2 mps 742 mmHg 87%
02:00 +19°C° 0.7 mm 2 mps 742 mmHg 93%
03:00 +19°C° 0.7 mm 2 mps 741 mmHg 94%
04:00 +20°C° 0.7 mm 1 mps 741 mmHg 95%
05:00 +20°C° 0.7 mm 1 mps 740 mmHg 95%
06:00 +20°C° 0.3 mm 2 mps 740 mmHg 93%
07:00 +20°C° 0.3 mm 2 mps 740 mmHg 90%
08:00 +21°C° 0.3 mm 2 mps 740 mmHg 88%
09:00 +24°C° 0 mm 3 mps 740 mmHg 80%
10:00 +25°C° 0 mm 3 mps 740 mmHg 73%
11:00 +27°C° 0 mm 4 mps 740 mmHg 66%
12:00 +26°C° 0.6 mm 5 mps 740 mmHg 70%
13:00 +24°C° 0.6 mm 6 mps 740 mmHg 73%
14:00 +23°C° 0.6 mm 7 mps 740 mmHg 77%
15:00 +22°C° 0.3 mm 7 mps 740 mmHg 79%
16:00 +20°C° 0.3 mm 7 mps 741 mmHg 80%
17:00 +18°C° 0.3 mm 7 mps 741 mmHg 82%
18:00 +17°C° 0 mm 6 mps 742 mmHg 83%
19:00 +17°C° 0 mm 5 mps 742 mmHg 85%
20:00 +17°C° 0 mm 4 mps 743 mmHg 86%
21:00 +16°C° 0 mm 3 mps 743 mmHg 90%
22:00 +16°C° 0 mm 3 mps 743 mmHg 93%
23:00 +14°C° 0 mm 3 mps 744 mmHg 97%

Day after tomorrow, 3 August, Tuesday

Time Temperature Precipitation Wind Pressure Humidity
00:00 +14°C° 0 mm 3 mps 744 mmHg 97%
01:00 +14°C° 0 mm 3 mps 744 mmHg 97%
02:00 +14°C° 0 mm 3 mps 744 mmHg 97%
03:00 +13°C° 0 mm 3 mps 744 mmHg 97%
04:00 +13°C° 0 mm 3 mps 745 mmHg 96%
05:00 +14°C° 0 mm 2 mps 745 mmHg 96%
06:00 +14°C° 0 mm 3 mps 745 mmHg 89%
07:00 +17°C° 0 mm 3 mps 746 mmHg 81%
08:00 +18°C° 0 mm 3 mps 746 mmHg 74%
09:00 +20°C° 0 mm 3 mps 746 mmHg 67%
10:00 +21°C° 0 mm 4 mps 746 mmHg 60%
11:00 +22°C° 0 mm 4 mps 747 mmHg 53%
12:00 +22°C° 0 mm 4 mps 747 mmHg 51%
13:00 +22°C° 0 mm 4 mps 747 mmHg 50%
14:00 +22°C° 0 mm 4 mps 746 mmHg 49%
15:00 +22°C° 0 mm 4 mps 747 mmHg 51%
16:00 +22°C° 0 mm 4 mps 747 mmHg 52%
17:00 +21°C° 0 mm 4 mps 747 mmHg 54%
18:00 +20°C° 0 mm 3 mps 747 mmHg 57%
19:00 +19°C° 0 mm 3 mps 747 mmHg 61%
20:00 +18°C° 0 mm 2 mps 748 mmHg 64%
21:00 +17°C° 0 mm 2 mps 748 mmHg 68%
22:00 +16°C° 0 mm 2 mps 748 mmHg 72%
23:00 +15°C° 0 mm 2 mps 748 mmHg 76%

4 August, Wednesday

Time Temperature Precipitation Wind Pressure Humidity
00:00 +14°C° 0 mm 2 mps 748 mmHg 78%
01:00 +14°C° 0 mm 2 mps 749 mmHg 80%
02:00 +13°C° 0 mm 2 mps 749 mmHg 82%
03:00 +13°C° 0 mm 2 mps 749 mmHg 82%
04:00 +13°C° 0 mm 2 mps 749 mmHg 83%
05:00 +13°C° 0 mm 2 mps 749 mmHg 83%
06:00 +15°C° 0 mm 2 mps 749 mmHg 77%
07:00 +17°C° 0 mm 2 mps 750 mmHg 70%
08:00 +19°C° 0 mm 2 mps 750 mmHg 64%
09:00 +20°C° 0 mm 2 mps 750 mmHg 58%
10:00 +23°C° 0 mm 2 mps 750 mmHg 52%
11:00 +24°C° 0 mm 2 mps 750 mmHg 46%
12:00 +25°C° 0 mm 2 mps 750 mmHg 44%
13:00 +25°C° 0 mm 2 mps 750 mmHg 42%
14:00 +26°C° 0 mm 1 mps 749 mmHg 39%
15:00 +26°C° 0 mm 1 mps 749 mmHg 40%
16:00 +26°C° 0 mm 1 mps 749 mmHg 41%
17:00 +26°C° 0 mm 1 mps 749 mmHg 42%
18:00 +24°C° 0 mm 2 mps 749 mmHg 47%
19:00 +23°C° 0 mm 2 mps 749 mmHg 52%
20:00 +20°C° 0 mm 3 mps 748 mmHg 58%
21:00 +19°C° 0.4 mm 2 mps 749 mmHg 67%
22:00 +18°C° 0.4 mm 2 mps 749 mmHg 75%
23:00 +18°C° 0.4 mm 1 mps 749 mmHg 84%

5 August, Thursday

Time Temperature Precipitation Wind Pressure Humidity
00:00 +16°C° 0.9 mm 2 mps 748 mmHg 87%
01:00 +16°C° 0.9 mm 3 mps 748 mmHg 90%
02:00 +15°C° 0.9 mm 4 mps 747 mmHg 92%
03:00 +15°C° 0.3 mm 4 mps 747 mmHg 93%
04:00 +15°C° 0.3 mm 4 mps 746 mmHg 94%
05:00 +15°C° 0.3 mm 4 mps 746 mmHg 95%
06:00 +17°C° 0.1 mm 4 mps 746 mmHg 92%
07:00 +18°C° 0.1 mm 4 mps 745 mmHg 89%
08:00 +19°C° 0.1 mm 4 mps 745 mmHg 86%
09:00 +21°C° 0.1 mm 4 mps 745 mmHg 82%
10:00 +22°C° 0.1 mm 4 mps 745 mmHg 78%
11:00 +23°C° 0.1 mm 4 mps 744 mmHg 75%
12:00 +24°C° 0.1 mm 3 mps 744 mmHg 74%
13:00 +25°C° 0.1 mm 2 mps 744 mmHg 74%
14:00 +25°C° 0.1 mm 2 mps 744 mmHg 74%
15:00 +26°C° 0.1 mm 2 mps 743 mmHg 71%
16:00 +26°C° 0.1 mm 2 mps 743 mmHg 68%
17:00 +27°C° 0.1 mm 1 mps 742 mmHg 66%
18:00 +25°C° 0.2 mm 1 mps 742 mmHg 73%
19:00 +24°C° 0.2 mm 1 mps 742 mmHg 79%
20:00 +22°C° 0.2 mm 1 mps 742 mmHg 86%
21:00 +22°C° 1.4 mm 1 mps 741 mmHg 90%
22:00 +21°C° 1.4 mm 1 mps 741 mmHg 93%
23:00 +21°C° 1.4 mm 1 mps 741 mmHg 96%

6 August, Friday

Time Temperature Precipitation Wind Pressure Humidity
00:00 +20°C° 1.9 mm 2 mps 740 mmHg 96%
01:00 +20°C° 1.9 mm 3 mps 740 mmHg 97%
02:00 +20°C° 1.9 mm 5 mps 739 mmHg 97%
03:00 +19°C° 0.6 mm 5 mps 739 mmHg 96%
04:00 +19°C° 0.6 mm 4 mps 739 mmHg 96%
05:00 +19°C° 0.6 mm 4 mps 738 mmHg 96%
06:00 +18°C° 1.5 mm 4 mps 739 mmHg 96%
07:00 +17°C° 1.5 mm 5 mps 739 mmHg 97%
08:00 +16°C° 1.5 mm 5 mps 740 mmHg 97%
09:00 +17°C° 0.3 mm 4 mps 740 mmHg 95%
10:00 +17°C° 0.3 mm 4 mps 741 mmHg 93%
11:00 +17°C° 0.3 mm 3 mps 741 mmHg 91%
12:00 +19°C° 0 mm 3 mps 741 mmHg 81%
13:00 +21°C° 0 mm 4 mps 741 mmHg 71%
14:00 +23°C° 0 mm 4 mps 742 mmHg 60%
15:00 +22°C° 0 mm 4 mps 742 mmHg 62%
16:00 +22°C° 0 mm 4 mps 742 mmHg 63%
17:00 +21°C° 0 mm 3 mps 742 mmHg 64%
18:00 +20°C° 0 mm 3 mps 742 mmHg 69%
19:00 +19°C° 0 mm 3 mps 742 mmHg 73%
20:00 +18°C° 0 mm 3 mps 742 mmHg 78%
21:00 +18°C° 0 mm 3 mps 743 mmHg 77%
22:00 +18°C° 0 mm 3 mps 743 mmHg 75%
23:00 +18°C° 0 mm 3 mps 743 mmHg 74%
Show more